Location: ?????????
(41.2393°N, 22.9479°E)
Time: 09:02:55
(UTC+00:00)

Daily predictions for brighter satellites

Satellite Brightness Start Highest point End
(mag) Time Altitude Azimuth Time Altitude Azimuth Time Altitude Azimuth
RESURS DK-1 3.5 15:32:11 10° N 15:35:24 22° NE 15:38:34 10° ESE
Cosmos 1782 Rocket 3.6 15:31:38 10° S 15:36:03 86° ESE 15:40:30 10° N
Cosmos 1300 Rocket 3.8 15:35:59 10° SSW 15:40:22 75° W 15:44:45 10° N
ISS -3.4 15:37:19 10° WSW 15:40:38 61° NNW 15:43:56 10° NE
Cosmos 1869 3.6 15:37:42 10° SSE 15:40:57 36° E 15:44:12 10° NNE
CZ-2D R/B 3.4 15:38:42 10° SE 15:41:35 34° ENE 15:44:29 10° N
SJ-12 4.1 15:42:29 10° SE 15:46:05 42° ENE 15:49:41 10° N
IGS 5A 3.6 15:42:20 10° S 15:46:19 76° WSW 15:50:20 10° NNW
COSMO-SKYMED 1 4.1 15:46:02 10° NE 15:48:32 15° E 15:51:00 10° SE
Cosmos 540 Rocket 3.9 15:46:30 10° N 15:51:17 38° ENE 15:56:02 10° SE
Cosmos 1400 Rocket 4.2 15:51:56 10° SE 15:54:25 17° E 15:56:32 11° NE
CORIOLIS 4.2 15:50:41 10° SSE 15:56:03 89° ENE 16:01:26 10° NNW
Cosmos 1763 Rocket 3.6 15:51:32 10° N 15:56:38 51° ENE 16:01:36 10° SE
Cosmos 1975 Rocket 3.0 15:53:20 10° N 15:57:42 79° E 16:02:04 10° S
Cosmos 1140 Rocket 4.3 15:54:08 10° SW 15:59:10 51° WNW 16:04:12 10° N
IRS-1C 4.1 15:56:06 10° SSE 16:01:24 77° ENE 16:06:44 10° N
OAO 2 Rocket 4.3 15:57:18 10° WSW 16:02:00 41° S 16:06:47 10° ESE
Cosmos 2151 Rocket 4.5 15:58:28 10° SSE 16:02:17 28° E 16:06:09 10° NNE
SMAP 3.2 15:57:55 10° SSE 16:02:35 83° WSW 16:07:15 10° NNW
Cosmos 1812 2.4 15:59:55 10° SSE 16:02:38 38° E 16:05:22 10° NNE
Cosmos 44 Rocket 3.2 15:58:41 10° SSW 16:03:23 72° ESE 16:08:16 10° NE
OAO 3 Rocket 4.2 16:00:32 10° WSW 16:04:49 36° S 16:08:48 11° ESE
Cosmos 1943 Rocket 2.1 15:59:43 10° SSW 16:05:20 81° ESE 16:10:57 10° NNE
Cosmos 2058 3.4 16:05:38 10° NNE 16:09:15 33° ENE 16:12:51 10° SE
Okean 1 Rocket 4.2 16:09:00 10° SE 16:12:27 23° E 16:14:36 16° NE
Aureole 3 Rocket 2.1 16:09:55 10° S 16:12:56 59° E 16:15:59 10° NNE
Cosmos 2082 Rocket 2.7 16:07:57 10° N 16:13:08 37° ENE 16:18:17 10° SE
Cosmos 2278 Rocket 2.2 16:08:07 10° SSW 16:13:46 89° ESE 16:19:28 10° NNE
CZ-2D R/B 4.0 16:10:25 10° SE 16:14:08 34° ENE 16:17:57 10° N
SKYMED 2 3.9 16:10:21 10° NNE 16:14:31 44° E 16:18:40 10° S
Landsat 7 3.8 16:10:24 10° SSE 16:15:02 86° WSW 16:19:44 10° NNW
PSLV R/B 4.4 16:12:13 10° ESE 16:15:31 25° ENE 16:18:49 10° NNE
Helios 1A Rocket 3.2 16:18:18 23° ENE 16:19:34 30° E 16:22:35 10° SSE
Cosmos 1513 Rocket 4.5 16:14:58 10° S 16:21:16 76° E 16:27:41 10° N
SL-16 R/B 4.3 16:17:40 10° N 16:22:59 30° WNW 16:28:16 10° WSW
Cosmos 2369 Rocket 4.1 16:22:13 10° ESE 16:22:29 11° ESE 16:22:29 11° ESE
Cosmos 2251 Rocket 3.4 16:20:51 10° SSW 16:26:05 76° ESE 16:31:25 10° NNE
SL-19 R/B 4.4 16:25:55 10° SE 16:30:47 43° ENE 16:35:42 10° N
H-2A R/B 4.0 16:29:04 10° WSW 16:30:53 11° SW 16:32:12 10° SSW
Cosmos 371 Rocket 3.6 16:27:14 10° S 16:31:45 43° ESE 16:34:20 23° NE
YAOGAN 1 2.9 16:28:40 10° SE 16:32:39 41° ENE 16:36:39 10° N
Cosmos 304 Rocket 4.0 16:28:31 10° S 16:33:00 46° ESE 16:35:37 23° NE
Cosmos 841 Rocket 4.2 16:31:31 10° N 16:36:09 31° ENE 16:37:11 28° E
SJ 16-02 1.2 16:32:07 10° S 16:36:21 62° ESE 16:39:07 21° NNE
ATLAS 2AS CENTAUR R/B 4.0 16:32:21 10° NNW 16:36:55 19° NNE 16:38:09 18° NE
Nadezhda 4 Rocket 4.0 16:31:24 10° N 16:37:35 57° E 16:43:39 10° SSE
ARIANE 5 R/B 3.8 16:39:18 10° S 16:43:58 41° W 16:48:41 10° NNW
Resurs 1-3 3.6 16:40:15 10° SSE 16:44:25 52° ENE 16:48:36 10° N
Cosmos 1656 Rocket 4.0 16:40:25 10° S 16:45:32 40° ESE 16:47:09 33° ENE
COSMOS 2406 3.7 16:40:28 10° N 16:45:43 37° ENE 16:47:01 33° E
Cosmos 468 Rocket 3.8 16:44:37 10° NNW 16:49:51 82° ENE 16:54:58 10° SSE
Cosmos 1862 2.9 16:46:27 10° N 16:50:06 74° E 16:53:43 10° SSE
USA 215 3.6 16:43:38 10° SE 16:50:07 66° SW 16:56:38 10° NW
MOS 1 Rocket 4.0 16:52:49 10° S 16:56:58 50° W 17:01:17 10° NNW
Okean 2 Rocket 2.9 16:52:37 10° S 16:57:01 89° E 17:00:34 16° N
Cosmos 1190 Rocket 4.3 16:51:58 10° SSW 16:57:13 68° WNW 17:02:13 12° NNE
Cosmos 1428 Rocket 4.4 16:51:04 10° N 16:57:20 67° E 17:03:35 10° SSE
Cosmos 489 Rocket 4.4 16:53:04 10° NNW 16:59:17 65° ENE 17:05:26 10° SSE
Cosmos 1536 Rocket 3.5 16:55:06 10° N 16:59:33 87° WSW 17:03:55 10° S
H-II Stage 2 4.2 16:48:14 10° WSW 16:59:58 27° SSW 17:02:48 16° SSE
Cosmos 676 Rocket 3.9 16:54:49 10° SSW 17:00:06 78° ESE 17:03:00 28° NNE
ATLAS 5 CENTAUR R/B 4.4 17:00:44 10° WNW 17:04:36 23° WSW 17:09:04 10° SSW
Meteor 2-3 Rocket 3.8 17:00:01 10° N 17:05:35 53° ENE 17:07:28 37° SE
Cosmos 1954 Rocket 4.3 17:05:01 10° SSW 17:10:14 64° WNW 17:14:07 18° N
RESURS DK-1 4.2 17:09:19 10° NW 17:12:49 30° WSW 17:16:18 10° S
USA 281 3.9 17:15:07 34° NE 17:15:07 34° NE 17:20:07 10° N
SPOT 1/Viking Rocket 4.3 17:10:50 10° S 17:15:51 53° W 17:20:56 10° NNW
BlueWalker 3 3.3 17:12:34 10° SSW 17:14:33 29° SSW 17:14:33 29° SSW
ISS -1.3 17:15:34 10° WNW 17:17:12 16° NNW 17:17:12 16° NNW
Cosmos 968 Rocket 4.1 17:17:12 10° S 17:20:39 40° SSE 17:20:39 40° SSE
Cosmos 1634 Rocket 4.0 17:17:07 10° S 17:22:50 57° ESE 17:22:50 57° ESE
COSMO-SKYMED 1 3.6 17:21:26 19° N 17:24:02 41° WNW 17:27:54 10° SW
DELTA 2 R/B (1) 4.0 17:22:35 10° SW 17:27:39 47° SSE 17:27:39 47° SSE
BREEZE-M DEB (TANK) 4.0 17:29:27 10° WNW 17:32:21 36° N 17:32:21 36° N
Cosmos 2034 Rocket 4.4 17:29:41 10° SSW 17:35:47 62° W 17:42:00 10° N
Cosmos 1092 Rocket 4.0 17:48:09 10° N 17:54:23 76° W 17:54:59 69° SW
Cosmos 2082 Rocket 3.8 17:52:10 10° NW 17:57:04 31° WSW 18:01:56 10° SSW
Cosmos 2026 Rocket 4.4 17:54:52 10° NNW 18:00:49 58° W 18:06:50 10° S
Cosmos 2369 Rocket 3.8 18:02:07 10° SSW 18:04:20 25° SSW 18:04:20 25° SSW
BREEZE-M DEB (TANK) 4.4 17:59:10 10° WNW 18:07:58 59° W 18:07:58 59° W
SJ 16-02 4.2 18:12:56 10° W 18:14:55 13° WNW 18:15:42 12° NW
ATLAS 2AS CENTAUR R/B 4.0 18:22:25 10° NNW 18:25:35 29° NNW 18:25:35 29° NNW
Cosmos 2344 4.2 18:39:02 10° NW 18:47:28 69° WSW 18:47:32 69° WSW
